date,time,SUV Intensity [MED/Hr],UV Index,Daily total [MED],Since Last [MED]
28/08/2022,00:12:19,-0.000,0.0,0.0,0.0
28/08/2022,00:13:11,0.000,0.0,0.0,0.0
28/08/2022,00:14:11,0.001,0.0,0.0,0.0
28/08/2022,00:15:20,0.000,0.0,0.0,0.0
28/08/2022,00:16:11,0.000,0.0,0.0,0.0
28/08/2022,00:17:11,0.000,0.0,0.0,0.0
28/08/2022,00:18:11,0.000,0.0,0.0,0.0
28/08/2022,00:19:11,0.000,0.0,0.0,0.0
28/08/2022,00:20:11,0.000,0.0,0.0,0.0
28/08/2022,00:21:11,0.000,0.0,0.0,0.0
28/08/2022,00:22:11,0.000,0.0,0.0,0.0
28/08/2022,00:23:11,0.000,0.0,0.0,0.0
28/08/2022,00:24:11,0.000,0.0,0.0,0.0
28/08/2022,00:25:11,-0.000,0.0,0.0,0.0
28/08/2022,00:26:11,0.000,0.0,0.0,0.0
28/08/2022,00:27:11,-0.000,0.0,0.0,0.0
28/08/2022,00:28:11,0.000,0.0,0.0,0.0
28/08/2022,00:29:12,0.000,0.0,0.0,0.0
28/08/2022,00:30:11,0.000,0.0,0.0,0.0
28/08/2022,00:31:11,-0.001,0.0,0.0,0.0
28/08/2022,00:32:11,0.000,0.0,0.0,0.0
28/08/2022,00:33:11,0.000,0.0,0.0,0.0
28/08/2022,00:34:11,0.000,0.0,0.0,0.0
28/08/2022,00:35:11,0.000,0.0,0.0,0.0
28/08/2022,00:36:19,0.000,0.0,0.0,0.0
28/08/2022,00:37:11,0.000,0.0,0.0,0.0
28/08/2022,00:38:11,0.000,0.0,0.0,0.0
28/08/2022,00:39:19,-0.000,0.0,0.0,0.0
28/08/2022,00:40:11,0.000,0.0,0.0,0.0
28/08/2022,00:41:11,-0.000,0.0,0.0,0.0
28/08/2022,00:42:11,-0.000,0.0,0.0,0.0
28/08/2022,00:43:11,0.001,0.0,0.0,0.0
28/08/2022,00:44:11,0.000,0.0,0.0,0.0
28/08/2022,00:45:11,0.000,0.0,0.0,0.0
28/08/2022,00:46:12,0.000,0.0,0.0,0.0
28/08/2022,00:47:11,0.000,0.0,0.0,0.0
28/08/2022,00:48:11,0.001,0.0,0.0,0.0
28/08/2022,00:49:11,0.000,0.0,0.0,0.0
28/08/2022,00:50:11,0.001,0.0,0.0,0.0
28/08/2022,00:51:11,-0.000,0.0,0.0,0.0
28/08/2022,00:52:11,0.000,0.0,0.0,0.0
28/08/2022,00:53:11,0.001,0.0,0.0,0.0
28/08/2022,00:54:19,-0.000,0.0,0.0,0.0
28/08/2022,00:55:11,-0.000,0.0,0.0,0.0
28/08/2022,00:56:19,0.001,0.0,0.0,0.0
28/08/2022,00:57:11,0.000,0.0,0.0,0.0
28/08/2022,00:58:11,0.001,0.0,0.0,0.0
28/08/2022,00:59:11,0.001,0.0,0.0,0.0
28/08/2022,01:00:19,0.002,0.0,0.0,0.0
28/08/2022,01:01:11,0.001,0.0,0.0,0.0
28/08/2022,01:02:20,0.001,0.0,0.0,0.0
28/08/2022,01:03:11,-0.000,0.0,0.0,0.0
28/08/2022,01:04:12,0.001,0.0,0.0,0.0
28/08/2022,01:05:11,-0.000,0.0,0.0,0.0
28/08/2022,01:06:11,0.001,0.0,0.0,0.0
28/08/2022,01:07:11,0.001,0.0,0.0,0.0
28/08/2022,01:08:19,0.001,0.0,0.0,0.0
28/08/2022,01:09:11,-0.000,0.0,0.0,0.0
28/08/2022,01:10:12,-0.000,0.0,0.0,0.0
28/08/2022,01:11:20,0.001,0.0,0.0,0.0
28/08/2022,01:12:11,0.001,0.0,0.0,0.0
28/08/2022,01:13:11,0.001,0.0,0.0,0.0
28/08/2022,01:14:11,0.001,0.0,0.0,0.0
28/08/2022,01:15:11,0.001,0.0,0.0,0.0
28/08/2022,01:16:11,0.000,0.0,0.0,0.0
28/08/2022,01:17:11,0.002,0.0,0.0,0.0
28/08/2022,01:18:12,0.000,0.0,0.0,0.0
28/08/2022,01:19:11,0.001,0.0,0.0,0.0
28/08/2022,01:20:11,-0.000,0.0,0.0,0.0
28/08/2022,01:21:11,0.001,0.0,0.0,0.0
28/08/2022,01:22:11,0.000,0.0,0.0,0.0
28/08/2022,01:23:12,0.001,0.0,0.0,0.0
28/08/2022,01:24:11,0.001,0.0,0.0,0.0
28/08/2022,01:25:11,0.001,0.0,0.0,0.0
28/08/2022,01:26:11,0.001,0.0,0.0,0.0
28/08/2022,01:27:11,-0.000,0.0,0.0,0.0
28/08/2022,01:28:12,0.001,0.0,0.0,0.0
28/08/2022,01:29:11,0.001,0.0,0.0,0.0
28/08/2022,01:30:11,0.001,0.0,0.0,0.0
28/08/2022,01:31:11,0.001,0.0,0.0,0.0
28/08/2022,01:32:11,0.002,0.0,0.0,0.0
28/08/2022,01:33:12,0.001,0.0,0.0,0.0
28/08/2022,01:34:11,0.001,0.0,0.0,0.0
28/08/2022,01:35:20,0.001,0.0,0.0,0.0
28/08/2022,01:36:11,0.000,0.0,0.0,0.0
28/08/2022,01:37:11,0.002,0.0,0.0,0.0
28/08/2022,01:38:12,0.001,0.0,0.0,0.0
28/08/2022,01:39:11,0.001,0.0,0.0,0.0
28/08/2022,01:40:11,0.001,0.0,0.0,0.0
28/08/2022,01:41:11,0.001,0.0,0.0,0.0
28/08/2022,01:42:11,0.001,0.0,0.0,0.0
28/08/2022,01:43:11,0.001,0.0,0.0,0.0
28/08/2022,01:44:12,0.002,0.0,0.0,0.0
28/08/2022,01:45:11,0.001,0.0,0.0,0.0
28/08/2022,01:46:11,0.001,0.0,0.0,0.0
28/08/2022,01:47:12,0.001,0.0,0.0,0.0
28/08/2022,01:48:11,0.000,0.0,0.0,0.0
28/08/2022,01:49:13,0.001,0.0,0.0,0.0
28/08/2022,01:50:19,0.001,0.0,0.0,0.0
28/08/2022,01:51:12,0.002,0.0,0.0,0.0
28/08/2022,01:52:11,0.001,0.0,0.0,0.0
28/08/2022,01:53:19,0.001,0.0,0.0,0.0
28/08/2022,01:54:11,0.002,0.0,0.0,0.0
28/08/2022,01:55:11,0.001,0.0,0.0,0.0
28/08/2022,01:56:11,0.001,0.0,0.0,0.0
28/08/2022,01:57:11,0.001,0.0,0.0,0.0
28/08/2022,01:58:11,0.000,0.0,0.0,0.0
28/08/2022,01:59:11,0.001,0.0,0.0,0.0
28/08/2022,02:00:11,0.000,0.0,0.0,0.0
28/08/2022,02:01:11,0.001,0.0,0.0,0.0
28/08/2022,02:02:20,0.002,0.0,0.0,0.0
28/08/2022,02:03:12,0.001,0.0,0.0,0.0
28/08/2022,02:04:12,0.001,0.0,0.0,0.0
28/08/2022,02:05:19,0.000,0.0,0.0,0.0
28/08/2022,02:06:11,0.002,0.0,0.0,0.0
28/08/2022,02:07:11,0.001,0.0,0.0,0.0
28/08/2022,02:08:11,0.000,0.0,0.0,0.0
28/08/2022,02:09:11,0.002,0.0,0.0,0.0
28/08/2022,02:10:11,0.002,0.0,0.0,0.0
28/08/2022,02:11:11,0.001,0.0,0.0,0.0
28/08/2022,02:12:11,0.002,0.0,0.0,0.0
28/08/2022,02:13:11,0.000,0.0,0.0,0.0
28/08/2022,02:14:11,0.000,0.0,0.0,0.0
28/08/2022,02:15:12,0.000,0.0,0.0,0.0
28/08/2022,02:16:11,0.000,0.0,0.0,0.0
28/08/2022,02:17:11,0.001,0.0,0.0,0.0
28/08/2022,02:18:11,0.001,0.0,0.0,0.0
28/08/2022,02:19:11,0.001,0.0,0.0,0.0
28/08/2022,02:20:20,0.001,0.0,0.0,0.0
28/08/2022,02:21:11,0.001,0.0,0.0,0.0
28/08/2022,02:22:11,0.001,0.0,0.0,0.0
28/08/2022,02:23:11,0.002,0.0,0.0,0.0
28/08/2022,02:24:11,0.002,0.0,0.0,0.0
28/08/2022,02:25:12,0.002,0.0,0.0,0.0
28/08/2022,02:25:58,0.001,0.0,0.0,0.0
28/08/2022,02:27:12,0.001,0.0,0.0,0.0
28/08/2022,02:28:11,0.001,0.0,0.0,0.0
28/08/2022,02:29:19,0.000,0.0,0.0,0.0
28/08/2022,02:30:12,0.001,0.0,0.0,0.0
28/08/2022,02:31:12,0.001,0.0,0.0,0.0
28/08/2022,02:32:11,0.001,0.0,0.0,0.0
28/08/2022,02:33:11,0.001,0.0,0.0,0.0
28/08/2022,02:34:02,0.001,0.0,0.0,0.0
28/08/2022,02:35:12,0.002,0.0,0.0,0.0
28/08/2022,02:36:11,0.001,0.0,0.0,0.0
28/08/2022,02:37:11,0.002,0.0,0.0,0.0
28/08/2022,02:38:11,0.001,0.0,0.0,0.0
28/08/2022,02:39:11,0.001,0.0,0.0,0.0
28/08/2022,02:40:11,0.001,0.0,0.0,0.0
28/08/2022,02:41:11,0.001,0.0,0.0,0.0
28/08/2022,02:42:11,0.002,0.0,0.0,0.0
28/08/2022,02:43:12,0.001,0.0,0.0,0.0
28/08/2022,02:44:19,0.001,0.0,0.0,0.0
28/08/2022,02:45:11,0.001,0.0,0.0,0.0
28/08/2022,02:46:12,0.001,0.0,0.0,0.0
28/08/2022,02:47:11,0.000,0.0,0.0,0.0
28/08/2022,02:48:11,0.002,0.0,0.0,0.0
28/08/2022,02:49:12,0.001,0.0,0.0,0.0
28/08/2022,02:50:11,0.002,0.0,0.0,0.0
28/08/2022,02:51:11,0.000,0.0,0.0,0.0
28/08/2022,02:52:12,0.000,0.0,0.0,0.0
28/08/2022,02:53:11,0.002,0.0,0.0,0.0
28/08/2022,02:54:11,0.001,0.0,0.0,0.0
28/08/2022,02:55:12,0.001,0.0,0.0,0.0
28/08/2022,02:56:11,0.001,0.0,0.0,0.0
28/08/2022,02:57:11,0.001,0.0,0.0,0.0
28/08/2022,02:58:11,0.001,0.0,0.0,0.0
28/08/2022,02:59:19,0.001,0.0,0.0,0.0
28/08/2022,03:00:11,0.001,0.0,0.0,0.0
28/08/2022,03:01:02,0.001,0.0,0.0,0.0
28/08/2022,03:02:12,0.002,0.0,0.0,0.0
28/08/2022,03:03:11,0.001,0.0,0.0,0.0
28/08/2022,03:04:11,0.002,0.0,0.0,0.0
28/08/2022,03:05:22,0.002,0.0,0.0,0.0
28/08/2022,03:06:11,0.001,0.0,0.0,0.0
28/08/2022,03:07:11,0.001,0.0,0.0,0.0
28/08/2022,03:08:11,0.001,0.0,0.0,0.0
28/08/2022,03:09:11,0.001,0.0,0.0,0.0
28/08/2022,03:10:11,0.002,0.0,0.0,0.0
28/08/2022,03:11:11,0.001,0.0,0.0,0.0
28/08/2022,03:12:11,0.002,0.0,0.0,0.0
28/08/2022,03:13:12,0.002,0.0,0.0,0.0
28/08/2022,03:14:12,0.001,0.0,0.0,0.0
28/08/2022,03:15:13,0.001,0.0,0.0,0.0
28/08/2022,03:16:12,0.001,0.0,0.0,0.0
28/08/2022,03:17:11,0.001,0.0,0.0,0.0
28/08/2022,03:18:11,0.001,0.0,0.0,0.0
28/08/2022,03:19:11,0.002,0.0,0.0,0.0
28/08/2022,03:20:11,0.001,0.0,0.0,0.0
28/08/2022,03:21:11,0.000,0.0,0.0,0.0
28/08/2022,03:22:11,0.002,0.0,0.0,0.0
28/08/2022,03:23:20,0.001,0.0,0.0,0.0
28/08/2022,03:24:11,0.001,0.0,0.0,0.0
28/08/2022,03:25:19,0.001,0.0,0.0,0.0
28/08/2022,03:26:11,0.000,0.0,0.0,0.0
28/08/2022,03:27:12,0.002,0.0,0.0,0.0
28/08/2022,03:28:11,0.001,0.0,0.0,0.0
28/08/2022,03:29:20,0.001,0.0,0.0,0.0
28/08/2022,03:30:12,0.001,0.0,0.0,0.0
28/08/2022,03:31:19,0.001,0.0,0.0,0.0
28/08/2022,03:32:11,0.002,0.0,0.0,0.0
28/08/2022,03:33:12,0.001,0.0,0.0,0.0
28/08/2022,03:34:11,0.001,0.0,0.0,0.0
28/08/2022,03:35:12,0.001,0.0,0.0,0.0
28/08/2022,03:36:11,0.001,0.0,0.0,0.0
28/08/2022,03:37:12,0.001,0.0,0.0,0.0
28/08/2022,03:38:11,0.002,0.0,0.0,0.0
28/08/2022,03:39:11,0.001,0.0,0.0,0.0
28/08/2022,03:40:12,0.001,0.0,0.0,0.0
28/08/2022,03:41:20,0.001,0.0,0.0,0.0
28/08/2022,03:42:11,0.001,0.0,0.0,0.0
28/08/2022,03:43:11,0.002,0.0,0.0,0.0
28/08/2022,03:44:11,0.001,0.0,0.0,0.0
28/08/2022,03:45:11,0.001,0.0,0.0,0.0
28/08/2022,03:46:12,0.001,0.0,0.0,0.0
28/08/2022,03:47:11,0.002,0.0,0.0,0.0
28/08/2022,03:48:24,0.002,0.0,0.0,0.0
28/08/2022,03:50:12,0.002,0.0,0.0,0.0
28/08/2022,03:51:11,0.002,0.0,0.0,0.0
28/08/2022,03:52:11,0.002,0.0,0.0,0.0
28/08/2022,03:53:11,0.002,0.0,0.0,0.0
28/08/2022,03:54:11,0.001,0.0,0.0,0.0
28/08/2022,03:55:12,0.002,0.0,0.0,0.0
28/08/2022,03:56:11,0.001,0.0,0.0,0.0
28/08/2022,03:57:11,0.002,0.0,0.0,0.0
28/08/2022,03:58:12,0.002,0.0,0.0,0.0
28/08/2022,03:59:11,0.002,0.0,0.0,0.0
28/08/2022,04:00:11,0.002,0.0,0.0,0.0
28/08/2022,04:01:11,0.001,0.0,0.0,0.0
28/08/2022,04:02:12,0.002,0.0,0.0,0.0
28/08/2022,04:03:12,0.002,0.0,0.0,0.0
28/08/2022,04:04:13,0.002,0.0,0.0,0.0
28/08/2022,04:05:19,0.003,0.0,0.0,0.0
28/08/2022,04:06:12,0.002,0.0,0.0,0.0
28/08/2022,04:07:12,0.002,0.0,0.0,0.0
28/08/2022,04:08:11,0.002,0.0,0.0,0.0
28/08/2022,04:09:12,0.002,0.0,0.0,0.0
28/08/2022,04:10:12,0.002,0.0,0.0,0.0
28/08/2022,04:11:12,0.002,0.0,0.0,0.0
28/08/2022,04:12:11,0.002,0.0,0.0,0.0
28/08/2022,04:13:11,0.002,0.0,0.0,0.0
28/08/2022,04:14:11,0.002,0.0,0.0,0.0
28/08/2022,04:15:11,0.002,0.0,0.0,0.0
28/08/2022,04:16:12,0.001,0.0,0.0,0.0
28/08/2022,04:17:11,0.001,0.0,0.0,0.0
28/08/2022,04:18:12,0.002,0.0,0.0,0.0
28/08/2022,04:19:12,0.002,0.0,0.0,0.0
28/08/2022,04:20:11,0.002,0.0,0.0,0.0
28/08/2022,04:21:12,0.001,0.0,0.0,0.0
28/08/2022,04:22:11,0.001,0.0,0.0,0.0
28/08/2022,04:23:20,0.002,0.0,0.0,0.0
28/08/2022,04:24:11,0.002,0.0,0.0,0.0
28/08/2022,04:25:11,0.001,0.0,0.0,0.0
28/08/2022,04:26:12,0.000,0.0,0.0,0.0
28/08/2022,04:27:11,0.002,0.0,0.0,0.0
28/08/2022,04:28:12,0.002,0.0,0.0,0.0
28/08/2022,04:29:11,0.001,0.0,0.0,0.0
28/08/2022,04:30:11,0.001,0.0,0.0,0.0
28/08/2022,04:31:19,0.001,0.0,0.0,0.0
28/08/2022,04:32:12,0.002,0.0,0.0,0.0
28/08/2022,04:33:11,0.001,0.0,0.0,0.0
28/08/2022,04:34:12,0.002,0.0,0.0,0.0
28/08/2022,04:35:12,0.002,0.0,0.0,0.0
28/08/2022,04:36:12,0.003,0.0,0.0,0.0
28/08/2022,04:37:11,0.001,0.0,0.0,0.0
28/08/2022,04:38:12,0.002,0.0,0.0,0.0
28/08/2022,04:39:11,0.002,0.0,0.0,0.0
28/08/2022,04:40:11,0.003,0.0,0.0,0.0
28/08/2022,04:41:12,0.002,0.0,0.0,0.0
28/08/2022,04:42:12,0.002,0.0,0.0,0.0
28/08/2022,04:43:12,0.002,0.0,0.0,0.0
28/08/2022,04:44:20,0.002,0.0,0.0,0.0
28/08/2022,04:45:11,0.002,0.0,0.0,0.0
28/08/2022,04:46:11,0.002,0.0,0.0,0.0
28/08/2022,04:47:12,0.002,0.0,0.0,0.0
28/08/2022,04:48:11,0.002,0.0,0.0,0.0
28/08/2022,04:49:12,0.002,0.0,0.0,0.0
28/08/2022,04:50:11,0.003,0.0,0.0,0.0
28/08/2022,04:51:11,0.002,0.0,0.0,0.0
28/08/2022,04:52:11,0.002,0.0,0.0,0.0
28/08/2022,04:53:11,0.002,0.0,0.0,0.0
28/08/2022,04:54:28,0.002,0.0,0.0,0.0
28/08/2022,04:56:13,0.002,0.0,0.0,0.0
28/08/2022,04:57:11,0.002,0.0,0.0,0.0
28/08/2022,04:58:11,0.002,0.0,0.0,0.0
28/08/2022,04:59:21,0.001,0.0,0.0,0.0
28/08/2022,05:00:11,0.001,0.0,0.0,0.0
28/08/2022,05:01:11,0.001,0.0,0.0,0.0
28/08/2022,05:02:13,0.003,0.0,0.0,0.0
28/08/2022,05:03:12,0.002,0.0,0.0,0.0
28/08/2022,05:04:11,0.002,0.0,0.0,0.0
28/08/2022,05:05:20,0.002,0.0,0.0,0.0
28/08/2022,05:06:11,0.002,0.0,0.0,0.0
28/08/2022,05:07:11,0.002,0.0,0.0,0.0
28/08/2022,05:08:12,0.002,0.0,0.0,0.0
28/08/2022,05:09:11,0.002,0.0,0.0,0.0
28/08/2022,05:10:11,0.003,0.0,0.0,0.0
28/08/2022,05:11:12,0.003,0.0,0.0,0.0
28/08/2022,05:12:11,0.003,0.0,0.0,0.0
28/08/2022,05:13:11,0.003,0.0,0.0,0.0
28/08/2022,05:14:12,0.004,0.0,0.0,0.0
28/08/2022,05:15:12,0.003,0.0,0.0,0.0
28/08/2022,05:16:11,0.002,0.0,0.0,0.0
28/08/2022,05:17:11,0.003,0.0,0.0,0.0
28/08/2022,05:18:13,0.004,0.0,0.0,0.0
28/08/2022,05:19:11,0.004,0.0,0.0,0.0
28/08/2022,05:20:20,0.004,0.0,0.0,0.0
28/08/2022,05:21:11,0.004,0.0,0.0,0.0
28/08/2022,05:22:12,0.005,0.0,0.0,0.0
28/08/2022,05:23:20,0.005,0.0,0.0,0.0
28/08/2022,05:24:11,0.005,0.0,0.0,0.0
28/08/2022,05:25:12,0.005,0.0,0.0,0.0
28/08/2022,05:26:11,0.005,0.0,0.0,0.0
28/08/2022,05:27:11,0.004,0.0,0.0,0.0
28/08/2022,05:28:12,0.006,0.0,0.0,0.0
28/08/2022,05:29:11,0.006,0.0,0.0,0.0
28/08/2022,05:30:11,0.007,0.0,0.0,0.0
28/08/2022,05:31:12,0.006,0.0,0.0,0.0
28/08/2022,05:32:11,0.007,0.0,0.0,0.0
28/08/2022,05:33:12,0.007,0.0,0.0,0.0
28/08/2022,05:34:11,0.006,0.0,0.0,0.0
28/08/2022,05:35:12,0.008,0.0,0.001,0.001
28/08/2022,05:36:11,0.008,0.0,0.001,0.0
28/08/2022,05:37:11,0.008,0.0,0.001,0.0
28/08/2022,05:38:11,0.008,0.0,0.001,0.0
28/08/2022,05:39:11,0.008,0.0,0.001,0.0
28/08/2022,05:40:11,0.009,0.0,0.001,0.0
28/08/2022,05:41:11,0.009,0.0,0.001,0.0
28/08/2022,05:42:11,0.011,0.0,0.002,0.001
28/08/2022,05:43:11,0.010,0.0,0.002,0.0
28/08/2022,05:44:19,0.011,0.0,0.002,0.0
28/08/2022,05:45:12,0.011,0.0,0.002,0.0
28/08/2022,05:46:12,0.012,0.0,0.002,0.0
28/08/2022,05:47:12,0.012,0.0,0.002,0.0
28/08/2022,05:48:13,0.012,0.0,0.003,0.001
28/08/2022,05:49:12,0.013,0.0,0.003,0.0
28/08/2022,05:50:11,0.013,0.0,0.003,0.0
28/08/2022,05:51:12,0.015,0.0,0.003,0.0
28/08/2022,05:52:11,0.014,0.0,0.004,0.001
28/08/2022,05:53:11,0.014,0.0,0.004,0.0
28/08/2022,05:54:12,0.015,0.0,0.004,0.0
28/08/2022,05:55:12,0.016,0.0,0.004,0.0
28/08/2022,05:56:12,0.017,0.0,0.005,0.001
28/08/2022,05:57:19,0.018,0.0,0.005,0.0
28/08/2022,05:58:11,0.019,0.0,0.005,0.0
28/08/2022,05:59:12,0.019,0.0,0.006,0.001
28/08/2022,06:00:12,0.020,0.0,0.006,0.0
28/08/2022,06:01:12,0.020,0.0,0.006,0.0
28/08/2022,06:02:11,0.021,0.0,0.006,0.0
28/08/2022,06:03:11,0.022,0.0,0.007,0.001
28/08/2022,06:04:12,0.022,0.0,0.007,0.0
28/08/2022,06:05:20,0.023,0.0,0.008,0.001
28/08/2022,06:06:11,0.024,0.0,0.008,0.0
28/08/2022,06:07:12,0.025,0.0,0.008,0.0
28/08/2022,06:08:12,0.025,0.0,0.009,0.001
28/08/2022,06:09:11,0.025,0.0,0.009,0.0
28/08/2022,06:10:12,0.027,0.0,0.01,0.001
28/08/2022,06:11:12,0.028,0.0,0.01,0.0
28/08/2022,06:12:12,0.029,0.0,0.011,0.001
28/08/2022,06:13:12,0.030,0.0,0.011,0.0
28/08/2022,06:14:11,0.030,0.0,0.012,0.001
28/08/2022,06:15:19,0.032,0.0,0.012,0.0
28/08/2022,06:16:12,0.033,0.0,0.013,0.001
28/08/2022,06:17:12,0.033,0.0,0.013,0.0
28/08/2022,06:18:20,0.035,0.0,0.014,0.001
28/08/2022,06:19:12,0.036,0.0,0.014,0.0
28/08/2022,06:20:12,0.037,0.0,0.015,0.001
28/08/2022,06:21:11,0.038,0.0,0.016,0.001
28/08/2022,06:22:12,0.040,0.0,0.016,0.0
28/08/2022,06:23:12,0.040,0.0,0.017,0.001
28/08/2022,06:24:12,0.042,0.0,0.018,0.001
28/08/2022,06:25:12,0.043,0.0,0.018,0.0
28/08/2022,06:26:12,0.044,0.0,0.019,0.001
28/08/2022,06:27:12,0.045,0.0,0.02,0.001
28/08/2022,06:28:12,0.046,0.0,0.021,0.001
28/08/2022,06:29:12,0.048,0.0,0.021,0.0
28/08/2022,06:30:11,0.049,0.0,0.022,0.001
28/08/2022,06:31:12,0.051,0.0,0.023,0.001
28/08/2022,06:32:11,0.053,0.0,0.024,0.001
28/08/2022,06:33:11,0.055,0.0,0.025,0.001
28/08/2022,06:34:12,0.056,0.0,0.026,0.001
28/08/2022,06:35:11,0.058,0.0,0.027,0.001
28/08/2022,06:36:11,0.059,0.0,0.028,0.001
28/08/2022,06:37:12,0.060,0.0,0.029,0.001
28/08/2022,06:38:11,0.062,0.0,0.03,0.001
28/08/2022,06:39:20,0.064,0.0,0.031,0.001
28/08/2022,06:40:11,0.064,0.0,0.032,0.001
28/08/2022,06:41:12,0.067,0.0,0.033,0.001
28/08/2022,06:42:13,0.069,0.0,0.034,0.001
28/08/2022,06:43:12,0.070,0.0,0.035,0.001
28/08/2022,06:44:11,0.073,0.0,0.036,0.001
28/08/2022,06:45:11,0.075,0.0,0.038,0.002
28/08/2022,06:46:11,0.076,0.0,0.039,0.001
28/08/2022,06:47:05,0.077,0.0,0.04,0.001
28/08/2022,06:48:12,0.079,0.0,0.041,0.001
28/08/2022,06:49:12,0.081,0.0,0.043,0.002
28/08/2022,06:50:12,0.083,0.0,0.044,0.001
28/08/2022,06:51:11,0.085,0.0,0.046,0.002
28/08/2022,06:52:12,0.088,0.0,0.047,0.001
28/08/2022,06:53:12,0.090,0.0,0.048,0.001
28/08/2022,06:54:20,0.093,0.0,0.05,0.002
28/08/2022,06:55:12,0.095,0.0,0.051,0.001
28/08/2022,06:56:12,0.096,0.0,0.053,0.002
28/08/2022,06:57:12,0.099,0.0,0.055,0.002
28/08/2022,06:58:11,0.101,0.0,0.056,0.001
28/08/2022,06:59:12,0.104,0.0,0.058,0.002
28/08/2022,07:00:20,0.108,0.0,0.06,0.002
28/08/2022,07:01:12,0.109,0.0,0.062,0.002
28/08/2022,07:02:12,0.112,0.0,0.064,0.002
28/08/2022,07:03:11,0.114,0.0,0.065,0.001
28/08/2022,07:04:19,0.119,0.0,0.068,0.003
28/08/2022,07:05:12,0.121,0.0,0.069,0.001
28/08/2022,07:06:12,0.124,0.0,0.071,0.002
28/08/2022,07:07:11,0.125,0.0,0.073,0.002
28/08/2022,07:08:12,0.127,0.0,0.076,0.003
28/08/2022,07:09:12,0.130,0.0,0.078,0.002
28/08/2022,07:10:12,0.133,0.0,0.08,0.002
28/08/2022,07:11:12,0.135,0.0,0.082,0.002
28/08/2022,07:12:12,0.140,0.0,0.084,0.002
28/08/2022,07:13:20,0.143,0.0,0.087,0.003
28/08/2022,07:14:11,0.144,0.0,0.089,0.002
28/08/2022,07:15:12,0.143,0.0,0.092,0.003
28/08/2022,07:16:11,0.146,0.0,0.094,0.002
28/08/2022,07:17:24,0.148,0.0,0.097,0.003
28/08/2022,07:19:13,0.155,0.0,0.101,0.004
28/08/2022,07:20:11,0.159,0.0,0.104,0.003
28/08/2022,07:21:12,0.161,0.0,0.107,0.003
28/08/2022,07:22:11,0.164,0.0,0.109,0.002
28/08/2022,07:23:12,0.164,0.0,0.112,0.003
28/08/2022,07:24:11,0.167,0.0,0.115,0.003
28/08/2022,07:25:12,0.172,0.0,0.118,0.003
28/08/2022,07:26:12,0.174,0.0,0.121,0.003
28/08/2022,07:27:12,0.179,0.0,0.124,0.003
28/08/2022,07:28:20,0.186,0.0,0.127,0.003
28/08/2022,07:29:12,0.196,0.0,0.13,0.003
28/08/2022,07:30:12,0.203,0.0,0.133,0.003
28/08/2022,07:31:20,0.204,0.0,0.137,0.004
28/08/2022,07:32:12,0.212,0.0,0.14,0.003
28/08/2022,07:33:12,0.218,1.0,0.144,0.004
28/08/2022,07:34:20,0.215,0.0,0.148,0.004
28/08/2022,07:35:11,0.226,1.0,0.151,0.003
28/08/2022,07:36:12,0.228,1.0,0.155,0.004
28/08/2022,07:37:12,0.233,1.0,0.158,0.003
28/08/2022,07:38:12,0.241,1.0,0.162,0.004
28/08/2022,07:39:11,0.243,1.0,0.166,0.004
28/08/2022,07:40:12,0.248,1.0,0.171,0.005
28/08/2022,07:41:12,0.251,1.0,0.175,0.004
28/08/2022,07:42:12,0.256,1.0,0.179,0.004
28/08/2022,07:43:12,0.257,1.0,0.183,0.004
28/08/2022,07:44:11,0.260,1.0,0.188,0.005
28/08/2022,07:45:12,0.267,1.0,0.192,0.004
28/08/2022,07:46:12,0.277,1.0,0.196,0.004
28/08/2022,07:47:12,0.283,1.0,0.201,0.005
28/08/2022,07:48:12,0.291,1.0,0.206,0.005
28/08/2022,07:49:21,0.294,1.0,0.211,0.005
28/08/2022,07:50:10,0.295,1.0,0.215,0.004
28/08/2022,07:51:12,0.299,1.0,0.221,0.006
28/08/2022,07:52:11,0.303,1.0,0.226,0.005
28/08/2022,07:53:11,0.310,1.0,0.231,0.005
28/08/2022,07:54:11,0.320,1.0,0.236,0.005
28/08/2022,07:55:12,0.323,1.0,0.241,0.005
28/08/2022,07:56:11,0.331,1.0,0.247,0.006
28/08/2022,07:57:11,0.333,1.0,0.252,0.005
28/08/2022,07:58:12,0.334,1.0,0.258,0.006
28/08/2022,07:59:12,0.333,1.0,0.263,0.005
28/08/2022,08:00:12,0.336,1.0,0.269,0.006
28/08/2022,08:01:12,0.335,1.0,0.275,0.006
28/08/2022,08:02:12,0.334,1.0,0.28,0.005
28/08/2022,08:03:12,0.336,1.0,0.286,0.006
28/08/2022,08:04:12,0.339,1.0,0.291,0.005
28/08/2022,08:05:12,0.345,1.0,0.297,0.006
28/08/2022,08:06:12,0.356,1.0,0.303,0.006
28/08/2022,08:07:20,0.379,1.0,0.31,0.007
28/08/2022,08:08:12,0.387,1.0,0.315,0.005
28/08/2022,08:09:12,0.389,1.0,0.322,0.007
28/08/2022,08:10:12,0.385,1.0,0.328,0.006
28/08/2022,08:11:12,0.387,1.0,0.335,0.007
28/08/2022,08:12:12,0.389,1.0,0.341,0.006
28/08/2022,08:13:11,0.398,1.0,0.348,0.007
28/08/2022,08:14:12,0.406,1.0,0.354,0.006
28/08/2022,08:15:12,0.405,1.0,0.361,0.007
28/08/2022,08:16:12,0.409,1.0,0.368,0.007
28/08/2022,08:17:12,0.403,1.0,0.375,0.007
28/08/2022,08:18:12,0.400,1.0,0.381,0.006
28/08/2022,08:19:12,0.392,1.0,0.388,0.007
28/08/2022,08:20:12,0.396,1.0,0.395,0.007
28/08/2022,08:21:13,0.401,1.0,0.401,0.006
28/08/2022,08:22:20,0.421,1.0,0.409,0.008
28/08/2022,08:23:11,0.450,1.0,0.415,0.006
28/08/2022,08:24:11,0.460,1.0,0.423,0.008
28/08/2022,08:25:11,0.494,1.0,0.431,0.008
28/08/2022,08:26:12,0.488,1.0,0.439,0.008
28/08/2022,08:27:12,0.480,1.0,0.447,0.008
28/08/2022,08:28:12,0.496,1.0,0.455,0.008
28/08/2022,08:29:12,0.502,1.0,0.463,0.008
28/08/2022,08:30:12,0.512,1.0,0.472,0.009
28/08/2022,08:31:12,0.535,1.0,0.481,0.009
28/08/2022,08:32:12,0.543,1.0,0.49,0.009
28/08/2022,08:33:12,0.548,1.0,0.499,0.009
28/08/2022,08:34:12,0.548,1.0,0.508,0.009
28/08/2022,08:35:12,0.543,1.0,0.517,0.009
28/08/2022,08:36:12,0.568,1.0,0.527,0.01
28/08/2022,08:37:12,0.581,1.0,0.536,0.009
28/08/2022,08:38:12,0.599,1.0,0.546,0.01
28/08/2022,08:39:12,0.603,1.0,0.556,0.01
28/08/2022,08:40:21,0.605,1.0,0.567,0.011
28/08/2022,08:41:12,0.611,1.0,0.576,0.009
28/08/2022,08:42:12,0.626,1.0,0.587,0.011
28/08/2022,08:43:20,0.627,1.0,0.598,0.011
28/08/2022,08:44:11,0.631,1.0,0.607,0.009
28/08/2022,08:45:12,0.632,1.0,0.618,0.011
28/08/2022,08:46:12,0.637,1.0,0.629,0.011
28/08/2022,08:47:12,0.630,1.0,0.639,0.01
28/08/2022,08:48:12,0.644,1.0,0.65,0.011
28/08/2022,08:49:12,0.657,2.0,0.661,0.011
28/08/2022,08:50:12,0.673,2.0,0.672,0.011
28/08/2022,08:51:12,0.681,2.0,0.683,0.011
28/08/2022,08:52:12,0.692,2.0,0.694,0.011
28/08/2022,08:53:12,0.705,2.0,0.706,0.012
28/08/2022,08:54:11,0.717,2.0,0.718,0.012
28/08/2022,08:55:20,0.730,2.0,0.731,0.013
28/08/2022,08:56:12,0.739,2.0,0.742,0.011
28/08/2022,08:57:12,0.738,2.0,0.754,0.012
28/08/2022,08:58:29,0.729,2.0,0.77,0.016
28/08/2022,09:00:13,0.720,2.0,0.79,0.02
28/08/2022,09:01:20,0.747,2.0,0.804,0.014
28/08/2022,09:02:12,0.749,2.0,0.815,0.011
28/08/2022,09:03:12,0.747,2.0,0.828,0.013
28/08/2022,09:04:12,0.738,2.0,0.84,0.012
28/08/2022,09:05:12,0.731,2.0,0.852,0.012
28/08/2022,09:06:12,0.722,2.0,0.864,0.012
28/08/2022,09:07:12,0.727,2.0,0.876,0.012
28/08/2022,09:08:12,0.728,2.0,0.888,0.012
28/08/2022,09:09:13,0.743,2.0,0.901,0.013
28/08/2022,09:10:12,0.747,2.0,0.913,0.012
28/08/2022,09:11:12,0.757,2.0,0.926,0.013
28/08/2022,09:12:12,0.773,2.0,0.938,0.012
28/08/2022,09:13:12,0.779,2.0,0.951,0.013
28/08/2022,09:14:13,0.796,2.0,0.965,0.014
28/08/2022,09:15:29,0.813,2.0,0.981,0.016
28/08/2022,09:17:13,0.804,2.0,1.005,0.024
28/08/2022,09:18:12,0.800,2.0,1.018,0.013
28/08/2022,09:19:03,0.808,2.0,1.029,0.011
28/08/2022,09:20:13,0.852,2.0,1.045,0.016
28/08/2022,09:21:11,0.907,2.0,1.06,0.015
28/08/2022,09:22:11,0.895,2.0,1.075,0.015
28/08/2022,09:23:12,0.859,2.0,1.09,0.015
28/08/2022,09:24:11,0.851,2.0,1.104,0.014
28/08/2022,09:25:12,0.844,2.0,1.118,0.014
28/08/2022,09:26:12,0.852,2.0,1.132,0.014
28/08/2022,09:27:12,0.815,2.0,1.146,0.014
28/08/2022,09:28:12,0.825,2.0,1.16,0.014
28/08/2022,09:29:12,0.855,2.0,1.174,0.014
28/08/2022,09:30:12,0.853,2.0,1.188,0.014
28/08/2022,09:31:12,0.842,2.0,1.202,0.014
28/08/2022,09:32:12,0.860,2.0,1.216,0.014
28/08/2022,09:33:11,0.829,2.0,1.23,0.014
28/08/2022,09:34:12,0.884,2.0,1.245,0.015
28/08/2022,09:35:12,0.901,2.0,1.259,0.014
28/08/2022,09:36:12,0.944,2.0,1.275,0.016
28/08/2022,09:37:12,0.947,2.0,1.29,0.015
28/08/2022,09:38:12,0.930,2.0,1.306,0.016
28/08/2022,09:39:12,0.962,2.0,1.322,0.016
28/08/2022,09:40:21,0.980,2.0,1.34,0.018
28/08/2022,09:41:12,0.956,2.0,1.354,0.014
28/08/2022,09:42:20,0.979,2.0,1.372,0.018
28/08/2022,09:43:12,0.995,2.0,1.386,0.014
28/08/2022,09:44:12,0.974,2.0,1.403,0.017
28/08/2022,09:45:21,0.977,2.0,1.421,0.018
28/08/2022,09:46:26,0.971,2.0,1.439,0.018
28/08/2022,09:48:13,0.947,2.0,1.467,0.028
28/08/2022,09:49:12,0.983,2.0,1.483,0.016
28/08/2022,09:50:12,1.006,2.0,1.5,0.017
28/08/2022,09:51:12,1.005,2.0,1.516,0.016
28/08/2022,09:52:12,0.993,2.0,1.533,0.017
28/08/2022,09:53:12,0.977,2.0,1.55,0.017
28/08/2022,09:54:12,1.002,2.0,1.566,0.016
28/08/2022,09:55:12,0.994,2.0,1.583,0.017
28/08/2022,09:56:12,1.019,2.0,1.6,0.017
28/08/2022,09:57:12,1.047,2.0,1.617,0.017
28/08/2022,09:58:13,1.082,2.0,1.635,0.018
28/08/2022,09:59:12,1.102,3.0,1.653,0.018
28/08/2022,10:00:12,1.118,3.0,1.671,0.018
28/08/2022,10:01:12,1.114,3.0,1.69,0.019
28/08/2022,10:02:12,1.135,3.0,1.709,0.019
28/08/2022,10:03:12,1.140,3.0,1.728,0.019
28/08/2022,10:04:12,1.140,3.0,1.747,0.019
28/08/2022,10:05:12,1.138,3.0,1.766,0.019
28/08/2022,10:06:12,1.145,3.0,1.785,0.019
28/08/2022,10:07:12,1.162,3.0,1.804,0.019
28/08/2022,10:08:12,1.179,3.0,1.823,0.019
28/08/2022,10:09:21,1.176,3.0,1.846,0.023
28/08/2022,10:10:12,1.124,3.0,1.863,0.017
28/08/2022,10:11:12,1.177,3.0,1.882,0.019
28/08/2022,10:12:20,1.148,3.0,1.904,0.022
28/08/2022,10:13:12,1.234,3.0,1.922,0.018
28/08/2022,10:14:12,1.177,3.0,1.942,0.02
28/08/2022,10:15:12,1.295,3.0,1.963,0.021
28/08/2022,10:16:12,1.314,3.0,1.984,0.021
28/08/2022,10:17:12,1.344,3.0,2.007,0.023
28/08/2022,10:18:12,1.303,3.0,2.029,0.022
28/08/2022,10:19:12,1.315,3.0,2.051,0.022